When you browse on this site, cookies collect data to enhance your experience and personalize the content and advertising you see.
Visit our Privacy Policy to learn more. By continuing to use the site, you agree to this use of cookies and data.
  • în România
  • Lista ţărilor
  • Pe 7 zile
  • Temperatura apei
  • Hartă satelitară
  • Meteo pe hartă
  • Widget-uri
  • user-avatar
    Intrare

    Meteo pe oră la Pireu

    Astăzi, 25 Mai, Sâmbătă

    Timp Temperatura Precipitaţii Vânt Presiune Umiditate
    00:00 +21°C° 0 mm 2 m/s 756 mmHg 65%
    01:00 +20°C° 0 mm 3 m/s 756 mmHg 67%
    02:00 +20°C° 0 mm 3 m/s 756 mmHg 70%
    03:00 +20°C° 0 mm 3 m/s 756 mmHg 71%
    04:00 +19°C° 0 mm 3 m/s 757 mmHg 73%
    05:00 +19°C° 0 mm 3 m/s 757 mmHg 75%
    06:00 +20°C° 0 mm 3 m/s 757 mmHg 69%
    07:00 +21°C° 0 mm 2 m/s 757 mmHg 64%
    08:00 +22°C° 0 mm 3 m/s 757 mmHg 57%
    09:00 +24°C° 0 mm 2 m/s 758 mmHg 53%
    10:00 +26°C° 0 mm 2 m/s 758 mmHg 49%
    11:00 +27°C° 0 mm 1 m/s 758 mmHg 45%
    12:00 +27°C° 0 mm 2 m/s 758 mmHg 42%
    13:00 +28°C° 0 mm 2 m/s 758 mmHg 40%
    14:00 +28°C° 0 mm 2 m/s 758 mmHg 36%
    15:00 +28°C° 0 mm 3 m/s 758 mmHg 36%
    16:00 +28°C° 0 mm 3 m/s 758 mmHg 36%
    17:00 +28°C° 0 mm 4 m/s 758 mmHg 36%
    18:00 +27°C° 0 mm 4 m/s 758 mmHg 41%
    19:00 +26°C° 0 mm 3 m/s 758 mmHg 46%
    20:00 +25°C° 0 mm 2 m/s 758 mmHg 51%
    21:00 +24°C° 0 mm 2 m/s 758 mmHg 54%
    22:00 +24°C° 0 mm 1 m/s 759 mmHg 57%
    23:00 +23°C° 0 mm 1 m/s 759 mmHg 60%

    Mâine, 26 Mai, Duminică

    Timp Temperatura Precipitaţii Vânt Presiune Umiditate
    00:00 +23°C° 0 mm 1 m/s 759 mmHg 61%
    01:00 +22°C° 0 mm 1 m/s 759 mmHg 63%
    02:00 +22°C° 0 mm 1 m/s 759 mmHg 64%
    03:00 +22°C° 0 mm 1 m/s 759 mmHg 64%
    04:00 +20°C° 0 mm 0 m/s 759 mmHg 65%
    05:00 +20°C° 0 mm 0 m/s 759 mmHg 65%
    06:00 +21°C° 0 mm 0 m/s 759 mmHg 60%
    07:00 +22°C° 0 mm 0 m/s 759 mmHg 56%
    08:00 +23°C° 0 mm 0 m/s 759 mmHg 51%
    09:00 +26°C° 0 mm 1 m/s 759 mmHg 47%
    10:00 +27°C° 0 mm 2 m/s 760 mmHg 43%
    11:00 +28°C° 0 mm 3 m/s 760 mmHg 39%
    12:00 +28°C° 0 mm 3 m/s 760 mmHg 38%
    13:00 +29°C° 0 mm 4 m/s 759 mmHg 37%
    14:00 +29°C° 0 mm 4 m/s 759 mmHg 35%
    15:00 +29°C° 0 mm 4 m/s 759 mmHg 36%
    16:00 +29°C° 0 mm 4 m/s 759 mmHg 36%
    17:00 +28°C° 0 mm 3 m/s 759 mmHg 37%
    18:00 +27°C° 0 mm 3 m/s 759 mmHg 40%
    19:00 +26°C° 0 mm 2 m/s 759 mmHg 44%
    20:00 +25°C° 0 mm 2 m/s 758 mmHg 47%
    21:00 +25°C° 0 mm 1 m/s 759 mmHg 49%
    22:00 +24°C° 0 mm 1 m/s 759 mmHg 52%
    23:00 +24°C° 0 mm 1 m/s 759 mmHg 54%

    Poimâine, 27 Mai, Luni

    Timp Temperatura Precipitaţii Vânt Presiune Umiditate
    00:00 +23°C° 0 mm 1 m/s 759 mmHg 55%
    01:00 +21°C° 0 mm 0 m/s 758 mmHg 56%
    02:00 +21°C° 0 mm 0 m/s 758 mmHg 57%
    03:00 +21°C° 0 mm 0 m/s 758 mmHg 56%
    04:00 +21°C° 0 mm 0 m/s 758 mmHg 55%
    05:00 +22°C° 0 mm 1 m/s 758 mmHg 54%
    06:00 +23°C° 0 mm 1 m/s 758 mmHg 51%
    07:00 +24°C° 0 mm 1 m/s 758 mmHg 47%
    08:00 +25°C° 0 mm 1 m/s 758 mmHg 44%
    09:00 +26°C° 0 mm 1 m/s 758 mmHg 40%
    10:00 +27°C° 0 mm 2 m/s 758 mmHg 37%
    11:00 +29°C° 0 mm 2 m/s 758 mmHg 33%
    12:00 +29°C° 0 mm 2 m/s 758 mmHg 32%
    13:00 +30°C° 0 mm 3 m/s 758 mmHg 30%
    14:00 +31°C° 0 mm 3 m/s 758 mmHg 28%
    15:00 +31°C° 0 mm 3 m/s 757 mmHg 29%
    16:00 +30°C° 0 mm 3 m/s 757 mmHg 30%
    17:00 +30°C° 0 mm 3 m/s 757 mmHg 31%
    18:00 +29°C° 0 mm 3 m/s 757 mmHg 37%
    19:00 +27°C° 0 mm 3 m/s 757 mmHg 43%
    20:00 +26°C° 0 mm 2 m/s 757 mmHg 48%
    21:00 +26°C° 0 mm 2 m/s 757 mmHg 52%
    22:00 +25°C° 0 mm 2 m/s 757 mmHg 56%
    23:00 +24°C° 0 mm 1 m/s 757 mmHg 60%

    28 Mai, Marţi

    Timp Temperatura Precipitaţii Vânt Presiune Umiditate
    00:00 +24°C° 0 mm 1 m/s 757 mmHg 62%
    01:00 +23°C° 0 mm 1 m/s 756 mmHg 63%
    02:00 +23°C° 0 mm 1 m/s 756 mmHg 65%
    03:00 +23°C° 0 mm 1 m/s 756 mmHg 66%
    04:00 +22°C° 0 mm 1 m/s 756 mmHg 68%
    05:00 +22°C° 0 mm 1 m/s 755 mmHg 69%
    06:00 +23°C° 0 mm 1 m/s 756 mmHg 64%
    07:00 +24°C° 0 mm 1 m/s 756 mmHg 59%
    08:00 +25°C° 0 mm 2 m/s 756 mmHg 54%
    09:00 +26°C° 0 mm 2 m/s 756 mmHg 50%
    10:00 +27°C° 0 mm 2 m/s 756 mmHg 45%
    11:00 +28°C° 0 mm 2 m/s 756 mmHg 41%
    12:00 +29°C° 0 mm 3 m/s 756 mmHg 39%
    13:00 +30°C° 0 mm 3 m/s 756 mmHg 37%
    14:00 +32°C° 0 mm 4 m/s 756 mmHg 35%
    15:00 +30°C° 0 mm 3 m/s 756 mmHg 36%
    16:00 +30°C° 0 mm 3 m/s 755 mmHg 37%
    17:00 +30°C° 0 mm 3 m/s 755 mmHg 38%
    18:00 +29°C° 0 mm 3 m/s 755 mmHg 41%
    19:00 +28°C° 0 mm 3 m/s 755 mmHg 44%
    20:00 +27°C° 0 mm 2 m/s 756 mmHg 47%
    21:00 +26°C° 0 mm 3 m/s 756 mmHg 49%
    22:00 +25°C° 0 mm 4 m/s 756 mmHg 52%
    23:00 +23°C° 0 mm 4 m/s 757 mmHg 55%

    29 Mai, Miercuri

    Timp Temperatura Precipitaţii Vânt Presiune Umiditate
    00:00 +23°C° 0 mm 4 m/s 756 mmHg 58%
    01:00 +22°C° 0 mm 4 m/s 756 mmHg 61%
    02:00 +21°C° 0 mm 3 m/s 756 mmHg 65%
    03:00 +21°C° 0 mm 3 m/s 756 mmHg 66%
    04:00 +21°C° 0 mm 3 m/s 756 mmHg 68%
    05:00 +20°C° 0 mm 3 m/s 756 mmHg 69%
    06:00 +22°C° 0 mm 3 m/s 756 mmHg 64%
    07:00 +24°C° 0 mm 3 m/s 757 mmHg 59%
    08:00 +25°C° 0 mm 3 m/s 757 mmHg 54%
    09:00 +26°C° 0 mm 3 m/s 757 mmHg 49%
    10:00 +28°C° 0 mm 3 m/s 757 mmHg 43%
    11:00 +29°C° 0 mm 3 m/s 758 mmHg 38%
    12:00 +30°C° 0 mm 3 m/s 757 mmHg 35%
    13:00 +31°C° 0 mm 3 m/s 757 mmHg 32%
    14:00 +33°C° 0 mm 3 m/s 757 mmHg 30%
    15:00 +33°C° 0 mm 3 m/s 757 mmHg 31%
    16:00 +31°C° 0 mm 3 m/s 757 mmHg 32%
    17:00 +32°C° 0 mm 4 m/s 757 mmHg 33%
    18:00 +30°C° 0 mm 3 m/s 757 mmHg 38%
    19:00 +28°C° 0 mm 3 m/s 757 mmHg 43%
    20:00 +27°C° 0 mm 2 m/s 757 mmHg 49%
    21:00 +26°C° 0 mm 2 m/s 757 mmHg 51%
    22:00 +26°C° 0 mm 2 m/s 757 mmHg 52%
    23:00 +25°C° 0 mm 2 m/s 758 mmHg 54%

    30 Mai, Joi

    Timp Temperatura Precipitaţii Vânt Presiune Umiditate
    00:00 +25°C° 0 mm 2 m/s 757 mmHg 55%
    01:00 +24°C° 0 mm 3 m/s 757 mmHg 57%
    02:00 +24°C° 0 mm 3 m/s 757 mmHg 59%
    03:00 +22°C° 0 mm 3 m/s 757 mmHg 59%
    04:00 +22°C° 0 mm 3 m/s 757 mmHg 60%
    05:00 +21°C° 0 mm 3 m/s 757 mmHg 60%
    06:00 +22°C° 0 mm 3 m/s 758 mmHg 56%
    07:00 +25°C° 0 mm 3 m/s 758 mmHg 51%
    08:00 +26°C° 0 mm 3 m/s 758 mmHg 46%
    09:00 +27°C° 0 mm 3 m/s 758 mmHg 42%
    10:00 +29°C° 0 mm 3 m/s 758 mmHg 37%
    11:00 +30°C° 0 mm 2 m/s 758 mmHg 33%
    12:00 +31°C° 0 mm 2 m/s 758 mmHg 31%
    13:00 +31°C° 0 mm 2 m/s 758 mmHg 30%
    14:00 +32°C° 0 mm 2 m/s 758 mmHg 28%
    15:00 +33°C° 0 mm 3 m/s 758 mmHg 29%
    16:00 +33°C° 0 mm 3 m/s 758 mmHg 30%
    17:00 +31°C° 0 mm 3 m/s 758 mmHg 31%
    18:00 +30°C° 0 mm 3 m/s 758 mmHg 35%
    19:00 +29°C° 0 mm 3 m/s 758 mmHg 39%
    20:00 +28°C° 0 mm 2 m/s 758 mmHg 43%
    21:00 +27°C° 0 mm 2 m/s 758 mmHg 45%
    22:00 +26°C° 0 mm 2 m/s 758 mmHg 47%
    23:00 +26°C° 0 mm 2 m/s 758 mmHg 49%
    Arată mai mult